Flight Track Log - Related Links

Times and Time Zones

All times are in EDT time to prevent confusion due to time zone crossing. See the RPA3242 flight status page for this flight to view local times or setup timezone preferences in your user account.

Time Position Orientation Groundspeed Altitude Reporting Facility
EDT Latitude Longitude Course Direction KTS MPH feet Rate Location/Type
Tue 06:25:40 PM 42.1994 -83.3581 90° East 166 191 1,400  Level Cleveland Center
Tue 06:26:41 PM 42.1497 -83.3503 173° South 224 258 2,900 2,431 Climbing Cleveland Center
Tue 06:27:36 PM 42.0958 -83.3311 165° South 231 266 6,100 3,155 Climbing Cleveland Center
Tue 06:28:00 PM 42.2167 -82.9238 90° East  Level FlightAware Approximate
Tue 06:28:37 PM 42.0731 -83.2406 109° East 270 311 9,000  Level Cleveland Center
Tue 06:29:00 PM 42.2167 -82.7801 90° East  Level FlightAware Approximate
Tue 06:29:33 PM 42.0856 -83.1433 80° East 325 374 10,000  Level Cleveland Center
Tue 06:30:00 PM 42.2167 -82.6364 90° East  Level FlightAware Approximate
Tue 06:30:33 PM 42.1089 -83.0294 75° East 331 381 11,600  Level Cleveland Center
Tue 06:31:33 PM 42.1322 -82.9128 75° East 331 381 14,100 2,400 Climbing Cleveland Center
Tue 06:32:33 PM 42.1556 -82.7847 76° East 336 387 16,400 2,200 Climbing Cleveland Center
Tue 06:33:33 PM 42.1831 -82.6511 74° East 349 402 18,500 2,200 Climbing Cleveland Center
Tue 06:34:33 PM 42.2003 -82.5086 81° East 365 420 20,800 2,050 Climbing Cleveland Center
Tue 06:35:33 PM 42.1461 -82.3642 117° Southeast 378 435 22,600 1,100 Climbing Cleveland Center
Tue 06:36:33 PM 42.0753 -82.2308 126° Southeast 395 455 23,000 500 Climbing Cleveland Center
Tue 06:37:33 PM 42.0042 -82.0947 125° Southeast 441 507 23,600 1,100 Climbing Cleveland Center
Tue 06:38:33 PM 41.9331 -81.9564 125° Southeast 458 527 25,200 1,550 Climbing Cleveland Center
Tue 06:39:33 PM 41.8575 -81.8125 125° Southeast 463 533 26,700 1,350 Climbing Cleveland Center
Tue 06:40:33 PM 41.7900 -81.6803 124° Southeast 469 540 27,900 1,300 Climbing Cleveland Center
Tue 06:41:33 PM 41.7122 -81.5317 125° Southeast 483 556 29,300 1,250 Climbing Cleveland Center
Tue 06:42:33 PM 41.6319 -81.3806 125° Southeast 494 568 30,400 1,200 Climbing Cleveland Center
Tue 06:43:33 PM 41.5494 -81.2267 126° Southeast 506 582 31,700 1,300 Climbing Cleveland Center
Tue 06:44:33 PM 41.4525 -81.0736 130° Southeast 506 582 33,000 650 Climbing Cleveland Center
Tue 06:45:33 PM 41.3569 -80.9400 134° Southeast 500 575 33,000  Level Cleveland Center
Tue 06:46:33 PM 41.2594 -80.8097 135° Southeast 493 567 33,000  Level Cleveland Center
Tue 06:47:33 PM 41.1636 -80.6742 133° Southeast 493 567 33,000  Level Cleveland Center
Tue 06:48:33 PM 41.0803 -80.5583 134° Southeast 488 562 33,000  Level Cleveland Center
Tue 06:49:33 PM 40.9822 -80.4264 135° Southeast 488 562 33,000  Level Cleveland Center
Tue 06:50:33 PM 40.8881 -80.2919 133° Southeast 488 562 33,000  Level Cleveland Center
Tue 06:51:33 PM 40.8000 -80.1497 129° Southeast 493 567 33,000  Level Cleveland Center
Tue 06:52:33 PM 40.7431 -79.9856 115° Southeast 488 562 33,000  Level Cleveland Center
Tue 06:53:33 PM 40.6794 -79.8083 115° Southeast 488 562 33,000  Level Cleveland Center
Tue 06:54:33 PM 40.6178 -79.6450 116° Southeast 488 562 33,000  Level Cleveland Center
Tue 06:55:33 PM 40.5600 -79.4817 115° Southeast 488 562 33,000  Level Cleveland Center
Tue 06:56:33 PM 40.5208 -79.3131 107° East 488 562 33,000  Level Cleveland Center
Tue 06:57:33 PM 40.4961 -79.1578 102° East 466 536 33,000  Level Cleveland Center
Tue 06:58:33 PM 40.4689 -78.9864 102° East 471 542 33,000 -300 Level Cleveland Center
Tue 06:59:33 PM 40.4408 -78.7961 101° East 478 550 32,400 -1,250 Descending Cleveland Center
Tue 07:00:33 PM 40.4153 -78.6250 101° East 478 550 30,500 -1,781 Descending Cleveland Center
Tue 07:02:08 PM 40.3769 -78.3786 101° East 485 558 27,800 -1,816 Descending New York Center
Tue 07:03:05 PM 40.3522 -78.2097 101° East 485 558 25,900 -1,436 Descending New York Center
Tue 07:04:05 PM 40.3247 -78.0514 103° East 467 537 25,000 -446 Descending New York Center
Tue 07:05:06 PM 40.3094 -77.8919 97° East 449 517 25,000 -248 Level New York Center
Tue 07:06:06 PM 40.3042 -77.7336 92° East 439 505 24,500 -1,041 Descending New York Center
Tue 07:07:07 PM 40.2828 -77.5625 99° East 439 505 22,900 -1,438 Descending New York Center
Tue 07:08:07 PM 40.2625 -77.4081 100° East 428 493 21,600 -1,210 Descending New York Center
Tue 07:09:06 PM 40.2469 -77.2733 99° East 428 493 20,500 -1,210 Descending New York Center
Tue 07:10:06 PM 40.2261 -77.1192 100° East 428 493 19,200 -732 Descending New York Center
Tue 07:11:09 PM 40.2078 -76.9544 98° East 417 480 19,000 -99 Descending New York Center
Tue 07:12:07 PM 40.1897 -76.8194 100° East 412 474 19,000 -621 Level New York Center
Tue 07:13:05 PM 40.1681 -76.6708 101° East 412 474 17,800 -1,613 Descending New York Center
Tue 07:14:06 PM 40.1506 -76.5228 99° East 412 474 15,800 -1,820 Descending New York Center
Tue 07:15:07 PM 40.1303 -76.3772 100° East 390 449 14,100 -1,438 Descending New York Center
Tue 07:16:07 PM 40.1189 -76.2650 98° East 352 405 12,900 -1,250 Descending New York Center
Tue 07:17:07 PM 40.1075 -76.1500 97° East 323 372 11,600 -1,424 Descending New York Center
Tue 07:18:05 PM 40.1006 -76.0275 94° East 315 362 10,100 -1,424 Descending New York Center
Tue 07:19:05 PM 40.0944 -75.9292 95° East 310 357 8,800 -1,050 Descending New York Center
Tue 07:20:05 PM 40.1258 -75.8311 67° East 279 321 8,000 -397 Descending New York Center
Tue 07:21:06 PM 40.1539 -75.7625 62° Northeast 244 281 8,000  Level New York Center
Tue 07:22:06 PM 40.1906 -75.6781 60° Northeast 233 268 8,000  Level New York Center
Tue 07:23:07 PM 40.2208 -75.6069 61° Northeast 238 274 8,000  Level New York Center
Tue 07:24:07 PM 40.2531 -75.5331 60° Northeast 238 274 8,000 -203 Level New York Center
Tue 07:25:05 PM 40.2461 -75.4456 96° East 215 247 7,600 -655 Descending New York Center
Tue 07:26:06 PM 40.1942 -75.3850 138° Southeast 206 237 6,700 -780 Descending New York Center
Tue 07:27:08 PM 40.1506 -75.3278 135° Southeast 237 273 6,000 -353 Descending New York Center
Tue 07:28:05 PM 40.1028 -75.2675 136° Southeast 242 278 6,000  Level New York Center
Tue 07:29:05 PM 40.0469 -75.2044 139° Southeast 242 278 6,000  Level New York Center
Tue 07:30:06 PM 39.9975 -75.1850 163° South 220 253 6,000 -50 Level New York Center
Tue 07:31:06 PM 39.9833 -75.1000 102° East 213 245 5,900 -450 Descending Philadelphia TRACON
Tue 07:32:06 PM 40.0000 -75.0333 72° East 186 214 5,100 -450 Descending Philadelphia TRACON
Tue 07:33:06 PM 40.0167 -74.9667 72° East 191 220 5,000 -50 Descending Philadelphia TRACON
Tue 07:34:07 PM 40.0333 -74.9000 72° East 190 219 5,000 -397 Level Philadelphia TRACON
Tue 07:35:07 PM 40.0000 -74.8667 143° Southeast 183 211 4,200 -1,050 Descending Philadelphia TRACON
Tue 07:36:07 PM 39.9500 -74.8667 180° South 178 205 2,900 -650 Descending Philadelphia TRACON
Tue 07:37:07 PM 39.9333 -74.9167 247° West 163 188 2,900 50 Level Philadelphia TRACON
Tue 07:38:07 PM 39.9333 -74.9667 270° West 163 188 3,000 50 Climbing Philadelphia TRACON
Tue 07:39:07 PM 39.9167 -75.0333 252° West 163 188 3,000 -400 Level Philadelphia TRACON
Tue 07:40:07 PM 39.9000 -75.0833 247° West 161 185 2,200 -800 Descending Philadelphia TRACON

Login

Don't have an account? Register now (free) for customized features, flight alerts, and more!